KC4LW Weather Reports


time (UTC)temp
C
wind
direction
speed
KPH
gust
KPH
rain 1hr
cm
rain 24hr
cm
rain mn
cm
humidity
%
barometer
mb
20260510173054 25 116 1.6 9.7 0.00 0.71 0.13 91 1015.3
20260510171554 24 0 0.0 4.8 0.00 0.71 0.13 94 1015.5
20260510170059 23 114 0.0 6.4 0.00 0.71 0.13 96 1016.0
20260510164556 23 75 1.6 6.4 0.00 0.71 0.13 97 1016.2
20260510163053 23 0 1.6 6.4 0.00 0.71 0.13 98 1016.2
20260510161551 23 115 0.0 3.2 0.00 0.71 0.13 99 1016.3
20260510160053 22 92 1.6 4.8 0.00 0.71 0.13 99 1016.2
20260510154556 22 0 3.2 6.4 0.00 0.71 0.13 99 1016.4
20260510153054 22 0 0.0 4.8 0.00 0.71 0.13 100 1016.2
20260510151552 22 0 1.6 4.8 0.00 0.71 0.13 100 1015.9
20260510150057 22 0 0.0 4.8 0.00 0.71 0.13 100 1016.2
20260510144552 22 0 0.0 4.8 0.00 0.71 0.13 100 1016.3
20260510143053 22 0 0.0 4.8 0.00 0.71 0.13 100 1016.1
20260510141557 22 294 0.0 3.2 0.00 0.71 0.13 100 1015.9
20260510140056 22 286 0.0 1.6 0.00 0.71 0.13 100 1015.9
20260510134604 22 0 0.0 3.2 0.00 0.71 0.13 100 1015.7
20260510133052 22 0 0.0 3.2 0.00 0.71 0.13 100 1015.8
20260510131553 22 0 0.0 3.2 0.00 0.71 0.13 100 1015.6
20260510130053 22 0 0.0 4.8 0.00 0.71 0.13 100 1015.5
20260510124556 22 0 0.0 3.2 0.00 0.71 0.13 100 1015.2
20260510123054 22 302 1.6 4.8 0.00 0.71 0.13 100 1015.1
20260510121553 22 302 1.6 6.4 0.03 0.71 0.13 100 1014.9
20260510120052 21 0 0.0 4.8 0.03 0.71 0.13 100 1014.7
20260510114549 21 0 0.0 1.6 0.03 0.71 0.13 100 1014.4
20260510113053 21 0 0.0 1.6 0.03 0.71 0.13 100 1014.2
20260510111554 21 0 0.0 0.0 0.00 0.69 0.10 99 1013.9
20260510110058 21 0 0.0 0.0 0.00 0.69 0.10 99 1013.8
20260510104552 21 0 0.0 0.0 0.00 0.71 0.10 99 1013.8
20260510103100 21 0 0.0 0.0 0.03 0.71 0.10 99 1013.6
20260510101605 21 0 0.0 0.0 0.03 0.71 0.10 100 1013.3
20260510100055 21 0 0.0 0.0 0.03 0.71 0.10 100 1013.3
20260510094553 21 0 0.0 1.6 0.03 0.71 0.10 99 1013.3
20260510093053 21 0 0.0 0.0 0.00 0.69 0.08 100 1013.0
20260510091556 21 0 0.0 1.6 0.00 0.69 0.08 99 1012.8
20260510090055 21 0 0.0 1.6 0.00 0.69 0.08 100 1012.4
20260510084552 21 0 0.0 0.0 0.00 0.69 0.08 99 1012.4
20260510083053 21 0 0.0 1.6 0.00 0.69 0.08 99 1012.3
20260510081557 21 284 0.0 1.6 0.00 0.69 0.08 99 1012.6
20260510080050 21 360 0.0 1.6 0.03 0.69 0.08 99 1012.8
20260510074602 21 0 0.0 0.0 0.03 0.69 0.08 99 1012.4
20260510073100 21 0 0.0 0.0 0.03 0.69 0.08 99 1012.2
20260510071552 21 0 0.0 0.0 0.05 0.69 0.08 99 1012.2
20260510070052 21 0 0.0 0.0 0.03 0.66 0.05 99 1012.1
20260510064555 21 0 0.0 0.0 0.03 0.66 0.05 99 1012.3
20260510063102 21 0 0.0 0.0 0.03 0.66 0.05 99 1012.3
20260510061603 21 0 0.0 0.0 0.00 0.64 0.03 99 1012.5
20260510060054 21 0 0.0 0.0 0.00 0.64 0.03 99 1012.9
20260510054600 21 0 0.0 1.6 0.03 0.64 0.03 99 1013.1
20260510053055 21 0 0.0 1.6 0.03 0.64 0.03 99 1013.3
20260510051554 21 0 0.0 3.2 0.03 0.64 0.03 99 1013.7
20260510050055 21 0 0.0 0.0 0.03 0.64 0.03 99 1014.0
20260510044553 21 0 0.0 0.0 0.00 0.74 0.00 99 1013.7
20260510043051 21 0 0.0 0.0 0.00 0.74 0.00 99 1013.7
20260510041620 21 0 0.0 0.0 0.00 0.74 0.00 99 1013.7
20260510040100 21 0 0.0 0.0 0.00 0.74 0.00 99 1013.8
20260510034604 21 0 0.0 0.0 0.00 1.09 0.74 99 1013.8
20260510033116 21 0 0.0 1.6 0.00 1.09 0.74 99 1014.0
20260510031556 21 0 0.0 1.6 0.00 1.09 0.74 99 1013.9
20260510030056 21 0 0.0 1.6 0.00 1.09 0.74 99 1013.9
20260510024610 21 360 0.0 3.2 0.00 1.09 0.74 99 1013.4
20260510023100 21 0 0.0 1.6 0.00 1.09 0.74 98 1013.2
20260510021602 21 0 0.0 1.6 0.00 1.09 0.74 98 1013.0
20260510020056 21 0 0.0 1.6 0.03 1.09 0.74 98 1012.7
20260510014612 21 0 0.0 3.2 0.03 1.09 0.74 98 1012.5
20260510013102 21 0 0.0 4.8 0.03 1.09 0.74 98 1012.8
20260510011553 21 0 0.0 1.6 0.03 1.09 0.74 98 1012.1
20260510010053 21 0 0.0 1.6 0.00 1.07 0.71 98 1012.2
20260510004600 21 0 0.0 1.6 0.00 1.07 0.71 98 1012.5
20260510003052 21 0 0.0 3.2 0.00 1.07 0.71 98 1012.6
20260510001552 21 0 0.0 1.6 0.00 1.07 0.71 98 1012.5
20260510000056 21 0 0.0 1.6 0.00 1.07 0.71 98 1012.5
20260509234554 22 0 0.0 0.0 0.00 1.07 0.71 97 1012.3
20260509233053 22 0 0.0 1.6 0.00 1.07 0.71 97 1012.3
20260509231604 22 0 0.0 1.6 0.00 1.07 0.71 97 1012.2
20260509230055 22 0 0.0 4.8 0.00 1.07 0.71 97 1012.3
20260509224552 22 0 0.0 3.2 0.00 1.07 0.71 97 1012.3
20260509223056 22 0 0.0 3.2 0.00 1.07 0.71 97 1012.4
20260509221553 22 0 0.0 8.0 0.00 1.07 0.71 97 1012.1
20260509220059 22 0 0.0 3.2 0.00 1.07 0.71 97 1012.3
20260509214557 22 0 1.6 4.8 0.05 1.07 0.71 96 1012.2
20260509213055 22 19 0.0 3.2 0.10 1.07 0.71 96 1012.1
20260509211558 22 0 1.6 11.3 0.15 1.07 0.71 96 1012.1
20260509210054 23 0 0.0 1.6 0.15 1.07 0.71 96 1011.8
20260509204553 23 0 0.0 3.2 0.10 1.02 0.66 96 1011.8
20260509203054 23 279 0.0 4.8 0.15 0.97 0.61 96 1011.8
20260509201552 23 0 0.0 1.6 0.30 0.91 0.56 95 1011.7
20260509200056 23 0 0.0 3.2 0.41 0.91 0.56 94 1011.6
20260509194553 24 280 0.0 1.6 0.41 0.91 0.56 93 1011.7
20260509193055 24 0 0.0 3.2 0.30 0.81 0.46 91 1011.8
20260509191553 25 0 0.0 1.6 0.08 0.58 0.23 89 1011.8
20260509190054 25 0 0.0 4.8 0.00 0.51 0.15 84 1011.6
20260509184549 26 78 1.6 6.4 0.00 0.51 0.15 82 1011.5
20260509183052 26 250 0.0 9.7 0.00 0.51 0.15 82 1011.8
20260509181552 26 0 0.0 6.4 0.00 0.51 0.15 83 1011.7
20260509180054 26 85 1.6 6.4 0.00 0.51 0.15 83 1011.9
20260509174555 26 0 0.0 4.8 0.00 0.51 0.15 83 1012.2